TimeEDT,TemperatureF,Dew PointF,Humidity,Sea Level PressureIn,VisibilityMPH,Wind Direction,Wind SpeedMPH,Gust SpeedMPH,PrecipitationIn,Events,Conditions,WindDirDegrees,DateUTC
12:15 AM,66.2,66.2,100,30.06,10.0,Calm,Calm,-,N/A,,Unknown,0,2013-08-30 04:15:00
12:35 AM,66.2,66.2,100,30.06,10.0,Calm,Calm,-,N/A,,Unknown,0,2013-08-30 04:35:00
12:55 AM,64.4,64.4,100,30.06,10.0,Calm,Calm,-,N/A,,Unknown,0,2013-08-30 04:55:00
1:15 AM,64.4,64.4,100,30.06,10.0,Calm,Calm,-,N/A,,Unknown,0,2013-08-30 05:15:00
1:35 AM,64.4,64.4,100,30.06,10.0,Calm,Calm,-,N/A,,Unknown,0,2013-08-30 05:35:00
1:55 AM,64.4,64.4,100,30.05,7.0,Calm,Calm,-,N/A,,Unknown,0,2013-08-30 05:55:00
2:15 AM,64.4,64.4,100,30.05,10.0,Calm,Calm,-,N/A,,Unknown,0,2013-08-30 06:15:00
2:35 AM,64.4,64.4,100,30.05,10.0,Calm,Calm,-,N/A,,Unknown,0,2013-08-30 06:35:00
2:55 AM,64.4,64.4,100,30.05,7.0,Calm,Calm,-,N/A,,Unknown,0,2013-08-30 06:55:00
3:15 AM,64.4,64.4,100,30.05,10.0,Calm,Calm,-,N/A,,Unknown,0,2013-08-30 07:15:00
3:35 AM,62.6,62.6,100,30.04,10.0,Calm,Calm,-,N/A,,Unknown,0,2013-08-30 07:35:00
3:55 AM,64.4,64.4,100,30.04,10.0,Calm,Calm,-,N/A,,Unknown,0,2013-08-30 07:55:00
4:15 AM,64.4,64.4,100,30.04,10.0,Calm,Calm,-,N/A,,Unknown,0,2013-08-30 08:15:00
4:35 AM,62.6,62.6,100,30.05,10.0,Calm,Calm,-,N/A,,Unknown,0,2013-08-30 08:35:00
4:55 AM,62.6,62.6,100,30.04,10.0,Calm,Calm,-,N/A,,Unknown,0,2013-08-30 08:55:00
5:15 AM,62.6,62.6,100,30.05,10.0,Calm,Calm,-,N/A,,Unknown,0,2013-08-30 09:15:00
5:35 AM,62.6,62.6,100,30.05,10.0,Calm,Calm,-,N/A,,Unknown,0,2013-08-30 09:35:00
5:55 AM,60.8,60.8,100,30.05,10.0,Calm,Calm,-,N/A,,Unknown,0,2013-08-30 09:55:00
6:15 AM,62.6,62.6,100,30.05,10.0,Calm,Calm,-,N/A,,Unknown,0,2013-08-30 10:15:00
6:35 AM,60.8,60.8,100,30.05,10.0,Calm,Calm,-,N/A,,Unknown,0,2013-08-30 10:35:00
6:55 AM,60.8,60.8,100,30.05,10.0,Calm,Calm,-,N/A,,Unknown,0,2013-08-30 10:55:00
7:15 AM,62.6,62.6,100,30.05,10.0,Calm,Calm,-,N/A,,Unknown,0,2013-08-30 11:15:00
7:35 AM,62.6,62.6,100,30.06,10.0,Calm,Calm,-,N/A,,Unknown,0,2013-08-30 11:35:00
7:55 AM,64.4,64.4,100,30.05,10.0,Calm,Calm,-,N/A,,Unknown,0,2013-08-30 11:55:00
8:15 AM,66.2,66.2,100,30.06,10.0,Calm,Calm,-,N/A,,Unknown,0,2013-08-30 12:15:00
8:35 AM,68.0,68.0,100,30.05,10.0,Calm,Calm,-,N/A,,Unknown,0,2013-08-30 12:35:00
8:55 AM,69.8,69.8,100,30.05,10.0,Calm,Calm,-,N/A,,Unknown,0,2013-08-30 12:55:00
10:15 AM,75.2,71.6,89,30.05,10.0,SW,5.8,-,N/A,,Unknown,230,2013-08-30 14:15:00
10:35 AM,75.2,71.6,89,30.05,10.0,SW,4.6,-,N/A,,Unknown,230,2013-08-30 14:35:00
10:55 AM,77.0,71.6,83,30.04,10.0,SW,6.9,-,N/A,,Unknown,230,2013-08-30 14:55:00
11:15 AM,78.8,71.6,78,30.04,10.0,WSW,11.5,-,N/A,,Unknown,240,2013-08-30 15:15:00
11:35 AM,78.8,71.6,78,30.03,10.0,WSW,5.8,-,N/A,,Unknown,250,2013-08-30 15:35:00
11:55 AM,78.8,71.6,78,30.03,10.0,West,9.2,-,N/A,,Unknown,270,2013-08-30 15:55:00
12:15 PM,78.8,71.6,78,30.02,10.0,West,8.1,-,N/A,,Unknown,260,2013-08-30 16:15:00
12:35 PM,80.6,71.6,74,30.01,10.0,West,11.5,-,N/A,,Unknown,260,2013-08-30 16:35:00
12:55 PM,80.6,71.6,74,30.00,10.0,WSW,10.4,-,N/A,,Unknown,240,2013-08-30 16:55:00
1:15 PM,80.6,71.6,74,30.00,10.0,SW,9.2,-,N/A,,Unknown,220,2013-08-30 17:15:00
1:35 PM,82.4,71.6,70,30.00,10.0,West,9.2,-,N/A,,Unknown,280,2013-08-30 17:35:00
1:55 PM,82.4,71.6,70,29.99,10.0,WSW,9.2,-,N/A,,Unknown,240,2013-08-30 17:55:00
2:15 PM,82.4,71.6,70,29.98,10.0,SSW,8.1,-,N/A,,Unknown,200,2013-08-30 18:15:00
2:35 PM,82.4,71.6,70,29.98,10.0,WSW,10.4,-,N/A,,Unknown,250,2013-08-30 18:35:00
2:55 PM,82.4,71.6,70,29.97,10.0,SW,8.1,-,N/A,,Unknown,230,2013-08-30 18:55:00
3:15 PM,82.4,71.6,70,29.97,10.0,SW,10.4,-,N/A,,Unknown,230,2013-08-30 19:15:00
3:35 PM,82.4,71.6,70,29.96,10.0,SW,9.2,-,N/A,,Unknown,230,2013-08-30 19:35:00
3:55 PM,82.4,71.6,70,29.96,10.0,WSW,9.2,-,N/A,,Unknown,240,2013-08-30 19:55:00
4:15 PM,82.4,71.6,70,29.95,10.0,SW,9.2,16.1,N/A,,Unknown,230,2013-08-30 20:15:00
4:35 PM,82.4,71.6,70,29.95,10.0,WSW,6.9,-,N/A,,Unknown,250,2013-08-30 20:35:00
4:55 PM,82.4,71.6,70,29.94,10.0,WSW,6.9,-,N/A,,Unknown,240,2013-08-30 20:55:00
5:15 PM,80.6,71.6,74,29.94,10.0,WSW,6.9,-,N/A,,Unknown,240,2013-08-30 21:15:00
5:35 PM,82.4,71.6,70,29.92,10.0,WSW,10.4,-,N/A,,Unknown,240,2013-08-30 21:35:00
5:55 PM,82.4,71.6,70,29.92,10.0,WSW,6.9,-,N/A,,Unknown,240,2013-08-30 21:55:00
6:15 PM,80.6,71.6,74,29.91,10.0,WSW,10.4,-,N/A,,Unknown,240,2013-08-30 22:15:00
6:35 PM,80.6,71.6,74,29.90,10.0,SW,6.9,-,N/A,,Unknown,230,2013-08-30 22:35:00
6:55 PM,80.6,71.6,74,29.89,10.0,SW,5.8,-,N/A,,Unknown,230,2013-08-30 22:55:00
7:15 PM,78.8,71.6,78,29.89,10.0,SW,4.6,-,N/A,,Unknown,230,2013-08-30 23:15:00
7:35 PM,78.8,71.6,78,29.89,10.0,Calm,Calm,-,N/A,,Unknown,0,2013-08-30 23:35:00
7:55 PM,77.0,71.6,83,29.90,10.0,Calm,Calm,-,N/A,,Unknown,0,2013-08-30 23:55:00
8:15 PM,75.2,71.6,89,29.92,10.0,Calm,Calm,-,N/A,,Unknown,0,2013-08-31 00:15:00
8:35 PM,73.4,71.6,94,29.91,10.0,Calm,Calm,-,N/A,,Unknown,0,2013-08-31 00:35:00
8:55 PM,73.4,71.6,94,29.92,10.0,Calm,Calm,-,N/A,,Unknown,0,2013-08-31 00:55:00
9:15 PM,73.4,71.6,94,29.92,10.0,Calm,Calm,-,N/A,,Unknown,0,2013-08-31 01:15:00
9:35 PM,73.4,71.6,94,29.92,10.0,Calm,Calm,-,N/A,,Unknown,0,2013-08-31 01:35:00
9:55 PM,71.6,71.6,100,29.92,10.0,Calm,Calm,-,N/A,,Unknown,0,2013-08-31 01:55:00
10:15 PM,71.6,71.6,100,29.91,10.0,Calm,Calm,-,N/A,,Unknown,0,2013-08-31 02:15:00
10:35 PM,71.6,71.6,100,29.91,10.0,Calm,Calm,-,N/A,,Unknown,0,2013-08-31 02:35:00
10:55 PM,71.6,71.6,100,29.91,10.0,WSW,3.5,-,N/A,,Unknown,250,2013-08-31 02:55:00
11:15 PM,71.6,71.6,100,29.90,10.0,WSW,4.6,-,N/A,,Unknown,250,2013-08-31 03:15:00
11:35 PM,71.6,71.6,100,29.90,10.0,Calm,Calm,-,N/A,,Unknown,0,2013-08-31 03:35:00
11:55 PM,71.6,71.6,100,29.90,10.0,Calm,Calm,-,N/A,,Unknown,0,2013-08-31 03:55:00